| time (UTC) | temp F | wind direction | speed MPH | gust MPH | rain 1hr in | rain 24hr in | rain mn in | humidity % | barometer mb |
| 20260509012523 | 60 | 5 | 12.0 | 18.0 | 0.00 | 0.00 | 0.00 | 54 | 992.1 |
| 20260509012018 | 61 | 5 | 13.0 | 18.0 | 0.00 | 0.00 | 0.00 | 52 | 991.8 |
| 20260509011517 | 62 | 5 | 12.0 | 16.0 | 0.00 | 0.00 | 0.00 | 50 | 991.6 |
| 20260509011017 | 63 | 28 | 12.0 | 15.0 | 0.00 | 0.00 | 0.00 | 44 | 991.5 |
| 20260509010517 | 64 | 5 | 9.0 | 12.0 | 0.00 | 0.00 | 0.00 | 41 | 991.3 |
| 20260509010014 | 64 | 360 | 6.0 | 9.0 | 0.00 | 0.00 | 0.00 | 41 | 991.4 |
| 20260509005515 | 64 | 5 | 5.0 | 16.0 | 0.00 | 0.00 | 0.00 | 42 | 991.6 |
| 20260509005113 | 65 | 13 | 9.0 | 16.0 | 0.00 | 0.00 | 0.00 | 44 | 991.7 |
| 20260509004010 | 66 | 338 | 15.0 | 32.0 | 0.00 | 0.00 | 0.00 | 38 | 992.3 |
| 20260509003509 | 67 | 5 | 23.0 | 32.0 | 0.00 | 0.00 | 0.00 | 37 | 992.2 |
| 20260509003008 | 68 | 311 | 13.0 | 19.0 | 0.00 | 0.00 | 0.00 | 31 | 992.1 |
| 20260509002507 | 68 | 318 | 12.0 | 18.0 | 0.00 | 0.00 | 0.00 | 31 | 991.8 |
| 20260509002007 | 68 | 313 | 11.0 | 15.0 | 0.00 | 0.00 | 0.00 | 31 | 991.7 |
| 20260509001507 | 69 | 283 | 8.0 | 11.0 | 0.00 | 0.00 | 0.00 | 31 | 991.6 |
| 20260509001007 | 69 | 302 | 8.0 | 12.0 | 0.00 | 0.00 | 0.00 | 31 | 991.3 |
| 20260509000508 | 69 | 294 | 8.0 | 12.0 | 0.00 | 0.00 | 0.00 | 31 | 991.4 |
| 20260509000006 | 70 | 290 | 8.0 | 14.0 | 0.00 | 0.00 | 0.00 | 30 | 991.5 |
| 20260508235506 | 70 | 269 | 10.0 | 23.0 | 0.00 | 0.00 | 0.00 | 29 | 991.7 |
| 20260508235005 | 72 | 272 | 18.0 | 25.0 | 0.00 | 0.00 | 0.00 | 29 | 991.8 |
| 20260508234004 | 72 | 284 | 14.0 | 21.0 | 0.00 | 0.00 | 0.00 | 29 | 992.1 |
| 20260508233504 | 71 | 294 | 14.0 | 21.0 | 0.00 | 0.00 | 0.00 | 30 | 992.0 |
| 20260508233004 | 70 | 300 | 12.0 | 20.0 | 0.00 | 0.00 | 0.00 | 29 | 992.0 |
| 20260508232503 | 71 | 306 | 10.0 | 18.0 | 0.00 | 0.00 | 0.00 | 29 | 992.1 |
| 20260508232003 | 71 | 305 | 12.0 | 20.0 | 0.00 | 0.00 | 0.00 | 29 | 992.1 |
| 20260508231503 | 71 | 304 | 12.0 | 18.0 | 0.00 | 0.00 | 0.00 | 30 | 992.3 |
| 20260508231001 | 70 | 335 | 9.0 | 15.0 | 0.00 | 0.00 | 0.00 | 31 | 992.5 |
| 20260508230501 | 69 | 327 | 10.0 | 19.0 | 0.00 | 0.00 | 0.00 | 32 | 992.6 |
| 20260508230105 | 69 | 329 | 12.0 | 21.0 | 0.00 | 0.00 | 0.00 | 31 | 992.7 |
| 20260508225559 | 69 | 340 | 16.0 | 21.0 | 0.00 | 0.00 | 0.00 | 31 | 992.8 |
| 20260508225059 | 69 | 329 | 15.0 | 22.0 | 0.00 | 0.00 | 0.00 | 30 | 992.9 |
| 20260508224057 | 70 | 293 | 17.0 | 26.0 | 0.00 | 0.00 | 0.00 | 29 | 993.0 |
| 20260508223601 | 70 | 311 | 20.0 | 29.0 | 0.00 | 0.00 | 0.00 | 28 | 992.9 |
| 20260508223055 | 71 | 300 | 21.0 | 29.0 | 0.00 | 0.00 | 0.00 | 27 | 992.9 |
| 20260508222555 | 71 | 309 | 15.0 | 24.0 | 0.00 | 0.00 | 0.00 | 25 | 993.0 |
| 20260508222053 | 72 | 289 | 12.0 | 23.0 | 0.00 | 0.00 | 0.00 | 25 | 993.0 |
| 20260508221554 | 71 | 264 | 16.0 | 24.0 | 0.00 | 0.00 | 0.00 | 26 | 993.2 |
| 20260508221053 | 72 | 289 | 21.0 | 29.0 | 0.00 | 0.00 | 0.00 | 26 | 993.2 |
| 20260508220553 | 73 | 284 | 21.0 | 32.0 | 0.00 | 0.00 | 0.00 | 26 | 993.3 |
| 20260508220052 | 72 | 296 | 23.0 | 32.0 | 0.00 | 0.00 | 0.00 | 26 | 993.1 |
| 20260508215551 | 72 | 286 | 17.0 | 29.0 | 0.00 | 0.00 | 0.00 | 25 | 993.3 |
| 20260508215054 | 72 | 306 | 17.0 | 29.0 | 0.00 | 0.00 | 0.00 | 25 | 993.4 |
| 20260508214050 | 72 | 315 | 13.0 | 25.0 | 0.00 | 0.00 | 0.00 | 24 | 993.4 |
| 20260508213550 | 72 | 281 | 20.0 | 26.0 | 0.00 | 0.00 | 0.00 | 23 | 993.5 |
| 20260508213049 | 72 | 311 | 17.0 | 29.0 | 0.00 | 0.00 | 0.00 | 23 | 993.6 |
| 20260508212549 | 71 | 279 | 19.0 | 28.0 | 0.00 | 0.00 | 0.00 | 24 | 993.7 |
| 20260508212048 | 71 | 266 | 20.0 | 31.0 | 0.00 | 0.00 | 0.00 | 25 | 993.8 |
| 20260508211547 | 71 | 268 | 22.0 | 31.0 | 0.00 | 0.00 | 0.00 | 24 | 993.8 |
| 20260508211051 | 71 | 283 | 12.0 | 26.0 | 0.00 | 0.00 | 0.00 | 26 | 993.8 |
| 20260508210546 | 72 | 265 | 20.0 | 26.0 | 0.00 | 0.00 | 0.00 | 25 | 994.0 |
| 20260508210047 | 72 | 267 | 15.0 | 28.0 | 0.00 | 0.00 | 0.00 | 25 | 994.0 |
| 20260508205544 | 72 | 269 | 19.0 | 28.0 | 0.00 | 0.00 | 0.00 | 25 | 994.0 |
| 20260508205043 | 71 | 278 | 18.0 | 25.0 | 0.00 | 0.00 | 0.00 | 25 | 994.2 |
| 20260508204043 | 71 | 257 | 20.0 | 25.0 | 0.00 | 0.00 | 0.00 | 26 | 994.3 |
| 20260508203546 | 71 | 277 | 18.0 | 24.0 | 0.00 | 0.00 | 0.00 | 25 | 994.3 |
| 20260508203040 | 70 | 265 | 16.0 | 28.0 | 0.00 | 0.00 | 0.00 | 26 | 994.4 |
| 20260508202538 | 71 | 255 | 18.0 | 28.0 | 0.00 | 0.00 | 0.00 | 26 | 994.4 |
| 20260508202043 | 71 | 271 | 13.0 | 22.0 | 0.00 | 0.00 | 0.00 | 24 | 994.5 |
| 20260508201539 | 69 | 253 | 12.0 | 28.0 | 0.00 | 0.00 | 0.00 | 26 | 994.4 |
| 20260508201038 | 70 | 307 | 18.0 | 28.0 | 0.00 | 0.00 | 0.00 | 25 | 994.4 |
| 20260508200538 | 71 | 275 | 13.0 | 26.0 | 0.00 | 0.00 | 0.00 | 25 | 994.6 |
| 20260508200138 | 72 | 264 | 20.0 | 26.0 | 0.00 | 0.00 | 0.00 | 25 | 994.6 |
| 20260508195539 | 71 | 263 | 19.0 | 28.0 | 0.00 | 0.00 | 0.00 | 24 | 994.7 |
| 20260508195038 | 72 | 248 | 12.0 | 26.0 | 0.00 | 0.00 | 0.00 | 25 | 994.8 |
| 20260508194039 | 72 | 269 | 10.0 | 22.0 | 0.00 | 0.00 | 0.00 | 25 | 994.9 |
| 20260508193535 | 71 | 262 | 12.0 | 24.0 | 0.00 | 0.00 | 0.00 | 26 | 994.9 |
| 20260508193038 | 70 | 232 | 17.0 | 24.0 | 0.00 | 0.00 | 0.00 | 26 | 995.0 |
| 20260508192535 | 71 | 298 | 11.0 | 22.0 | 0.00 | 0.00 | 0.00 | 25 | 995.3 |
| 20260508192034 | 70 | 226 | 11.0 | 21.0 | 0.00 | 0.00 | 0.00 | 26 | 995.2 |
| 20260508191534 | 70 | 293 | 15.0 | 22.0 | 0.00 | 0.00 | 0.00 | 26 | 995.4 |
| 20260508191033 | 70 | 295 | 9.0 | 26.0 | 0.00 | 0.00 | 0.00 | 26 | 995.3 |
| 20260508190534 | 70 | 234 | 20.0 | 26.0 | 0.00 | 0.00 | 0.00 | 26 | 995.6 |
| 20260508190033 | 70 | 232 | 9.0 | 19.0 | 0.00 | 0.00 | 0.00 | 26 | 995.7 |
| 20260508185532 | 70 | 302 | 11.0 | 23.0 | 0.00 | 0.00 | 0.00 | 27 | 995.6 |
| 20260508185036 | 70 | 281 | 13.0 | 23.0 | 0.00 | 0.00 | 0.00 | 26 | 995.7 |
| 20260508184033 | 69 | 292 | 14.0 | 24.0 | 0.00 | 0.00 | 0.00 | 26 | 996.0 |
| 20260508183533 | 69 | 316 | 15.0 | 24.0 | 0.00 | 0.00 | 0.00 | 26 | 996.3 |
| 20260508183032 | 68 | 281 | 10.0 | 21.0 | 0.00 | 0.00 | 0.00 | 26 | 996.2 |
| 20260508182533 | 69 | 277 | 16.0 | 20.0 | 0.00 | 0.00 | 0.00 | 26 | 996.4 |
| 20260508182031 | 69 | 293 | 9.0 | 20.0 | 0.00 | 0.00 | 0.00 | 27 | 996.4 |
| 20260508181539 | 68 | 312 | 11.0 | 21.0 | 0.00 | 0.00 | 0.00 | 28 | 996.4 |
| 20260508181029 | 68 | 262 | 13.0 | 21.0 | 0.00 | 0.00 | 0.00 | 26 | 996.6 |
| 20260508180529 | 68 | 323 | 7.0 | 21.0 | 0.00 | 0.00 | 0.00 | 27 | 996.7 |
| 20260508180033 | 67 | 240 | 12.0 | 22.0 | 0.00 | 0.00 | 0.00 | 27 | 996.8 |
| 20260508175529 | 67 | 279 | 14.0 | 22.0 | 0.00 | 0.00 | 0.00 | 26 | 996.8 |
| 20260508175031 | 68 | 309 | 11.0 | 18.0 | 0.00 | 0.00 | 0.00 | 26 | 996.8 |
| 20260508174029 | 67 | 309 | 7.0 | 18.0 | 0.00 | 0.00 | 0.00 | 28 | 997.0 |
| 20260508173528 | 67 | 265 | 5.0 | 18.0 | 0.00 | 0.00 | 0.00 | 27 | 997.0 |
| 20260508173027 | 67 | 255 | 12.0 | 23.0 | 0.00 | 0.00 | 0.00 | 26 | 997.2 |
| 20260508172529 | 67 | 260 | 10.0 | 21.0 | 0.00 | 0.00 | 0.00 | 27 | 997.1 |
| 20260508172027 | 67 | 261 | 11.0 | 21.0 | 0.00 | 0.00 | 0.00 | 28 | 997.2 |
| 20260508171527 | 67 | 301 | 9.0 | 19.0 | 0.00 | 0.00 | 0.00 | 28 | 997.2 |
| 20260508171027 | 67 | 268 | 13.0 | 19.0 | 0.00 | 0.00 | 0.00 | 29 | 997.3 |
| 20260508170526 | 67 | 302 | 9.0 | 19.0 | 0.00 | 0.00 | 0.00 | 26 | 997.4 |
| 20260508170025 | 66 | 236 | 10.0 | 19.0 | 0.00 | 0.00 | 0.00 | 28 | 997.4 |
| 20260508165526 | 65 | 273 | 7.0 | 16.0 | 0.00 | 0.00 | 0.00 | 29 | 997.4 |
| 20260508165025 | 65 | 319 | 11.0 | 16.0 | 0.00 | 0.00 | 0.00 | 28 | 997.5 |
| 20260508164024 | 66 | 257 | 10.0 | 15.0 | 0.00 | 0.00 | 0.00 | 29 | 997.5 |
| 20260508163523 | 65 | 296 | 8.0 | 18.0 | 0.00 | 0.00 | 0.00 | 31 | 997.6 |
| 20260508163027 | 65 | 360 | 11.0 | 18.0 | 0.00 | 0.00 | 0.00 | 30 | 997.5 |
| 20260508162523 | 65 | 300 | 11.0 | 16.0 | 0.00 | 0.00 | 0.00 | 31 | 997.6 |
| 20260508162027 | 65 | 257 | 9.0 | 15.0 | 0.00 | 0.00 | 0.00 | 31 | 997.6 |
| 20260508161523 | 64 | 298 | 9.0 | 14.0 | 0.00 | 0.00 | 0.00 | 31 | 997.6 |
| 20260508161023 | 64 | 314 | 11.0 | 14.0 | 0.00 | 0.00 | 0.00 | 31 | 997.7 |
| 20260508160525 | 64 | 311 | 9.0 | 14.0 | 0.00 | 0.00 | 0.00 | 31 | 997.9 |
| 20260508160023 | 64 | 305 | 8.0 | 13.0 | 0.00 | 0.00 | 0.00 | 32 | 997.8 |
| 20260508155523 | 64 | 286 | 8.0 | 12.0 | 0.00 | 0.00 | 0.00 | 31 | 997.8 |
| 20260508155023 | 64 | 333 | 6.0 | 10.0 | 0.00 | 0.00 | 0.00 | 31 | 997.8 |
| 20260508154026 | 63 | 295 | 6.0 | 10.0 | 0.00 | 0.00 | 0.00 | 30 | 997.9 |
| 20260508153523 | 63 | 355 | 7.0 | 10.0 | 0.00 | 0.00 | 0.00 | 31 | 997.9 |
| 20260508153024 | 62 | 345 | 6.0 | 10.0 | 0.00 | 0.00 | 0.00 | 32 | 998.0 |
| 20260508152522 | 62 | 320 | 2.0 | 10.0 | 0.00 | 0.00 | 0.00 | 31 | 998.1 |
| 20260508152022 | 62 | 322 | 4.0 | 11.0 | 0.00 | 0.00 | 0.00 | 32 | 998.1 |
| 20260508151522 | 61 | 269 | 5.0 | 11.0 | 0.00 | 0.00 | 0.00 | 32 | 998.2 |
| 20260508151022 | 61 | 339 | 3.0 | 11.0 | 0.00 | 0.00 | 0.00 | 33 | 998.0 |
| 20260508150521 | 60 | 5 | 7.0 | 11.0 | 0.00 | 0.00 | 0.00 | 33 | 998.0 |
| 20260508150025 | 60 | 311 | 9.0 | 12.0 | 0.00 | 0.00 | 0.00 | 34 | 998.1 |
| 20260508145522 | 60 | 299 | 8.0 | 12.0 | 0.00 | 0.00 | 0.00 | 36 | 998.1 |
| 20260508145021 | 60 | 319 | 6.0 | 11.0 | 0.00 | 0.00 | 0.00 | 35 | 998.2 |
| 20260508144022 | 59 | 303 | 7.0 | 11.0 | 0.00 | 0.00 | 0.00 | 35 | 998.1 |
| 20260508143522 | 59 | 294 | 8.0 | 12.0 | 0.00 | 0.00 | 0.00 | 35 | 998.1 |
| 20260508143023 | 58 | 313 | 9.0 | 13.0 | 0.00 | 0.00 | 0.00 | 36 | 998.1 |
| 20260508142521 | 58 | 292 | 9.0 | 13.0 | 0.00 | 0.00 | 0.00 | 38 | 998.2 |
| 20260508142021 | 58 | 273 | 9.0 | 13.0 | 0.00 | 0.00 | 0.00 | 39 | 998.3 |
| 20260508141526 | 57 | 298 | 10.0 | 13.0 | 0.00 | 0.00 | 0.00 | 39 | 998.3 |
| 20260508141020 | 57 | 292 | 10.0 | 14.0 | 0.00 | 0.00 | 0.00 | 41 | 998.3 |
| 20260508140523 | 57 | 286 | 9.0 | 13.0 | 0.00 | 0.00 | 0.00 | 41 | 998.1 |
| 20260508140020 | 56 | 309 | 9.0 | 12.0 | 0.00 | 0.00 | 0.00 | 41 | 998.1 |
| 20260508135519 | 56 | 311 | 9.0 | 11.0 | 0.00 | 0.00 | 0.00 | 41 | 998.2 |
| 20260508135019 | 55 | 301 | 8.0 | 11.0 | 0.00 | 0.00 | 0.00 | 43 | 998.0 |
| 20260508134019 | 55 | 310 | 8.0 | 12.0 | 0.00 | 0.00 | 0.00 | 43 | 998.0 |
| 20260508133518 | 54 | 302 | 8.0 | 12.0 | 0.00 | 0.00 | 0.00 | 45 | 997.9 |
| 20260508133029 | 54 | 313 | 7.0 | 13.0 | 0.00 | 0.00 | 0.00 | 46 | 997.9 |
| 20260508132517 | 53 | 304 | 10.0 | 13.0 | 0.00 | 0.00 | 0.00 | 45 | 997.9 |
| 20260508132018 | 53 | 300 | 9.0 | 12.0 | 0.00 | 0.00 | 0.00 | 46 | 997.9 |
| 20260508131517 | 52 | 299 | 9.0 | 12.0 | 0.00 | 0.00 | 0.00 | 48 | 997.9 |
| 20260508131017 | 51 | 296 | 9.0 | 12.0 | 0.00 | 0.00 | 0.00 | 49 | 997.9 |
| 20260508130515 | 51 | 303 | 9.0 | 11.0 | 0.00 | 0.00 | 0.00 | 51 | 997.8 |
| 20260508130016 | 50 | 297 | 9.0 | 11.0 | 0.00 | 0.00 | 0.00 | 53 | 997.8 |
| 20260508125515 | 49 | 298 | 8.0 | 11.0 | 0.00 | 0.00 | 0.00 | 54 | 997.7 |
| 20260508125017 | 47 | 301 | 8.0 | 11.0 | 0.00 | 0.00 | 0.00 | 57 | 997.6 |
| 20260508124014 | 47 | 360 | 8.0 | 11.0 | 0.00 | 0.00 | 0.00 | 58 | 997.5 |
| 20260508123515 | 46 | 360 | 8.0 | 11.0 | 0.00 | 0.00 | 0.00 | 59 | 997.5 |
| 20260508123025 | 45 | 360 | 8.0 | 11.0 | 0.00 | 0.00 | 0.00 | 60 | 997.4 |
| 20260508122512 | 45 | 360 | 8.0 | 10.0 | 0.00 | 0.00 | 0.00 | 61 | 997.3 |
| 20260508122011 | 44 | 360 | 8.0 | 10.0 | 0.00 | 0.00 | 0.00 | 63 | 997.2 |
| 20260508121515 | 43 | 360 | 8.0 | 10.0 | 0.00 | 0.00 | 0.00 | 64 | 997.1 |
| 20260508121010 | 43 | 360 | 8.0 | 10.0 | 0.00 | 0.00 | 0.00 | 64 | 997.1 |
| 20260508120510 | 43 | 360 | 8.0 | 10.0 | 0.00 | 0.00 | 0.00 | 64 | 997.1 |
| 20260508120009 | 43 | 360 | 8.0 | 11.0 | 0.00 | 0.00 | 0.00 | 64 | 996.9 |
| 20260508115508 | 43 | 360 | 9.0 | 10.0 | 0.00 | 0.00 | 0.00 | 64 | 996.9 |
| 20260508115008 | 43 | 360 | 8.0 | 11.0 | 0.00 | 0.00 | 0.00 | 65 | 996.9 |
| 20260508114007 | 43 | 360 | 9.0 | 11.0 | 0.00 | 0.00 | 0.00 | 67 | 996.8 |
| 20260508113508 | 43 | 360 | 9.0 | 13.0 | 0.00 | 0.00 | 0.00 | 67 | 996.6 |
| 20260508113008 | 43 | 360 | 10.0 | 13.0 | 0.00 | 0.00 | 0.00 | 67 | 996.6 |
| 20260508112506 | 43 | 360 | 10.0 | 12.0 | 0.00 | 0.00 | 0.00 | 68 | 996.5 |
| 20260508112006 | 43 | 360 | 9.0 | 13.0 | 0.00 | 0.00 | 0.00 | 68 | 996.5 |
| 20260508111505 | 43 | 360 | 10.0 | 14.0 | 0.00 | 0.00 | 0.00 | 68 | 996.4 |
| 20260508111005 | 44 | 360 | 10.0 | 14.0 | 0.00 | 0.00 | 0.00 | 68 | 996.3 |
| 20260508110502 | 44 | 360 | 11.0 | 15.0 | 0.00 | 0.00 | 0.00 | 67 | 996.2 |
| 20260508110002 | 44 | 360 | 11.0 | 15.0 | 0.00 | 0.00 | 0.00 | 68 | 996.2 |
| 20260508105501 | 44 | 360 | 11.0 | 16.0 | 0.00 | 0.00 | 0.00 | 68 | 996.1 |
| 20260508105101 | 44 | 360 | 11.0 | 16.0 | 0.00 | 0.00 | 0.00 | 68 | 996.0 |
| 20260508104001 | 45 | 360 | 12.0 | 18.0 | 0.00 | 0.00 | 0.00 | 67 | 995.8 |
| 20260508103600 | 46 | 360 | 13.0 | 18.0 | 0.00 | 0.00 | 0.00 | 67 | 995.7 |
| 20260508103100 | 46 | 360 | 13.0 | 20.0 | 0.00 | 0.00 | 0.00 | 66 | 995.6 |
| 20260508102558 | 47 | 360 | 15.0 | 22.0 | 0.00 | 0.00 | 0.00 | 65 | 995.5 |
| 20260508102058 | 47 | 360 | 15.0 | 22.0 | 0.00 | 0.00 | 0.00 | 66 | 995.6 |
| 20260508101558 | 47 | 360 | 14.0 | 22.0 | 0.00 | 0.00 | 0.00 | 67 | 995.4 |
| 20260508101056 | 47 | 360 | 16.0 | 22.0 | 0.00 | 0.00 | 0.00 | 66 | 995.2 |
| 20260508100554 | 47 | 360 | 17.0 | 22.0 | 0.00 | 0.00 | 0.00 | 66 | 995.2 |
| 20260508100108 | 48 | 360 | 15.0 | 23.0 | 0.00 | 0.00 | 0.00 | 65 | 995.2 |
| 20260508095554 | 48 | 360 | 17.0 | 23.0 | 0.00 | 0.00 | 0.00 | 65 | 995.0 |
| 20260508095054 | 48 | 360 | 16.0 | 23.0 | 0.00 | 0.00 | 0.00 | 65 | 995.0 |
| 20260508094052 | 49 | 360 | 18.0 | 23.0 | 0.00 | 0.00 | 0.00 | 64 | 994.9 |
| 20260508093551 | 49 | 360 | 17.0 | 23.0 | 0.00 | 0.00 | 0.00 | 63 | 994.9 |
| 20260508093050 | 50 | 360 | 17.0 | 23.0 | 0.00 | 0.00 | 0.00 | 63 | 994.7 |
| 20260508092553 | 50 | 360 | 15.0 | 22.0 | 0.00 | 0.00 | 0.00 | 63 | 994.8 |
| 20260508092050 | 50 | 360 | 15.0 | 21.0 | 0.00 | 0.00 | 0.00 | 63 | 994.7 |
| 20260508091557 | 50 | 360 | 15.0 | 21.0 | 0.00 | 0.00 | 0.00 | 63 | 994.6 |
| 20260508091048 | 50 | 360 | 14.0 | 20.0 | 0.00 | 0.00 | 0.00 | 64 | 994.7 |
| 20260508090547 | 50 | 360 | 15.0 | 20.0 | 0.00 | 0.00 | 0.00 | 65 | 994.5 |
| 20260508090108 | 50 | 360 | 14.0 | 20.0 | 0.00 | 0.00 | 0.00 | 65 | 994.6 |
| 20260508085546 | 50 | 360 | 15.0 | 19.0 | 0.00 | 0.00 | 0.00 | 65 | 994.4 |
| 20260508085048 | 49 | 360 | 13.0 | 19.0 | 0.00 | 0.00 | 0.00 | 66 | 994.2 |
| 20260508084047 | 49 | 360 | 10.0 | 14.0 | 0.00 | 0.00 | 0.00 | 67 | 994.5 |
| 20260508083547 | 49 | 360 | 11.0 | 14.0 | 0.00 | 0.00 | 0.00 | 66 | 994.4 |
| 20260508083046 | 50 | 360 | 10.0 | 15.0 | 0.00 | 0.00 | 0.00 | 66 | 994.2 |
| 20260508082550 | 50 | 360 | 11.0 | 16.0 | 0.00 | 0.00 | 0.00 | 65 | 994.4 |
| 20260508082046 | 50 | 360 | 12.0 | 16.0 | 0.00 | 0.00 | 0.00 | 65 | 994.4 |
| 20260508081600 | 50 | 360 | 13.0 | 16.0 | 0.00 | 0.00 | 0.00 | 67 | 994.4 |
| 20260508081045 | 49 | 360 | 11.0 | 14.0 | 0.00 | 0.00 | 0.00 | 67 | 994.5 |
| 20260508080548 | 49 | 360 | 10.0 | 14.0 | 0.00 | 0.00 | 0.00 | 67 | 994.4 |
| 20260508080044 | 50 | 360 | 11.0 | 15.0 | 0.00 | 0.00 | 0.00 | 66 | 994.5 |
| 20260508075546 | 50 | 360 | 12.0 | 18.0 | 0.00 | 0.00 | 0.00 | 66 | 994.6 |
| 20260508075043 | 50 | 360 | 13.0 | 16.0 | 0.00 | 0.00 | 0.00 | 66 | 994.7 |
| 20260508074045 | 50 | 360 | 13.0 | 16.0 | 0.00 | 0.00 | 0.00 | 66 | 994.5 |
| 20260508073543 | 50 | 360 | 12.0 | 16.0 | 0.00 | 0.00 | 0.00 | 65 | 994.7 |
| 20260508073101 | 50 | 360 | 12.0 | 18.0 | 0.00 | 0.00 | 0.00 | 64 | 994.7 |
| 20260508072542 | 50 | 360 | 13.0 | 18.0 | 0.00 | 0.00 | 0.00 | 64 | 994.8 |
| 20260508072041 | 50 | 360 | 12.0 | 16.0 | 0.00 | 0.00 | 0.00 | 64 | 994.7 |
| 20260508071544 | 50 | 360 | 12.0 | 16.0 | 0.00 | 0.00 | 0.00 | 64 | 994.7 |
| 20260508071042 | 50 | 360 | 12.0 | 14.0 | 0.00 | 0.00 | 0.00 | 63 | 994.9 |
| 20260508070540 | 49 | 360 | 11.0 | 14.0 | 0.00 | 0.00 | 0.00 | 62 | 994.8 |
| 20260508070046 | 50 | 360 | 10.0 | 15.0 | 0.00 | 0.00 | 0.00 | 60 | 994.8 |
| 20260508065539 | 51 | 360 | 11.0 | 16.0 | 0.00 | 0.00 | 0.00 | 59 | 994.9 |
| 20260508065037 | 51 | 360 | 13.0 | 18.0 | 0.00 | 0.00 | 0.00 | 59 | 995.0 |
| 20260508064038 | 50 | 360 | 11.0 | 15.0 | 0.00 | 0.00 | 0.00 | 58 | 995.0 |
| 20260508063536 | 49 | 360 | 11.0 | 14.0 | 0.00 | 0.00 | 0.00 | 57 | 995.0 |
| 20260508063038 | 50 | 360 | 10.0 | 14.0 | 0.00 | 0.00 | 0.00 | 55 | 995.0 |
| 20260508062534 | 50 | 360 | 10.0 | 13.0 | 0.00 | 0.00 | 0.00 | 54 | 995.1 |
| 20260508062033 | 51 | 360 | 10.0 | 16.0 | 0.00 | 0.00 | 0.00 | 53 | 995.1 |
| 20260508061540 | 51 | 360 | 10.0 | 16.0 | 0.00 | 0.00 | 0.00 | 52 | 995.1 |
| 20260508061033 | 51 | 360 | 12.0 | 15.0 | 0.00 | 0.00 | 0.00 | 51 | 995.1 |
| 20260508060536 | 51 | 360 | 12.0 | 15.0 | 0.00 | 0.00 | 0.00 | 51 | 995.2 |
| 20260508060033 | 50 | 360 | 12.0 | 14.0 | 0.00 | 0.00 | 0.00 | 50 | 995.4 |
| 20260508055530 | 49 | 360 | 10.0 | 13.0 | 0.00 | 0.00 | 0.00 | 51 | 995.3 |
| 20260508055029 | 48 | 360 | 9.0 | 11.0 | 0.00 | 0.00 | 0.00 | 50 | 995.5 |
| 20260508054030 | 49 | 360 | 7.0 | 11.0 | 0.00 | 0.00 | 0.00 | 48 | 995.5 |
| 20260508053529 | 48 | 360 | 8.0 | 11.0 | 0.00 | 0.00 | 0.00 | 48 | 995.5 |
| 20260508053034 | 48 | 360 | 8.0 | 11.0 | 0.00 | 0.00 | 0.00 | 49 | 995.6 |
| 20260508052532 | 48 | 360 | 8.0 | 10.0 | 0.00 | 0.00 | 0.00 | 48 | 995.5 |
| 20260508052029 | 48 | 360 | 8.0 | 11.0 | 0.00 | 0.00 | 0.00 | 47 | 995.6 |
| 20260508051527 | 49 | 360 | 8.0 | 11.0 | 0.00 | 0.00 | 0.00 | 47 | 995.8 |
| 20260508051030 | 49 | 360 | 8.0 | 11.0 | 0.00 | 0.00 | 0.00 | 47 | 995.7 |
| 20260508050526 | 48 | 360 | 8.0 | 11.0 | 0.00 | 0.00 | 0.00 | 48 | 995.8 |
| 20260508050025 | 49 | 360 | 6.0 | 9.0 | 0.00 | 0.00 | 0.00 | 46 | 995.7 |
| 20260508045524 | 50 | 360 | 7.0 | 10.0 | 0.00 | 0.00 | 0.00 | 45 | 995.6 |
| 20260508045022 | 51 | 360 | 7.0 | 10.0 | 0.00 | 0.00 | 0.00 | 44 | 995.7 |
| 20260508044022 | 51 | 360 | 7.0 | 10.0 | 0.00 | 0.00 | 0.00 | 42 | 995.8 |
| 20260508043522 | 52 | 360 | 6.0 | 8.0 | 0.00 | 0.00 | 0.00 | 41 | 995.8 |
| 20260508043022 | 52 | 360 | 6.0 | 8.0 | 0.00 | 0.00 | 0.00 | 40 | 995.8 |
| 20260508042523 | 52 | 360 | 5.0 | 6.0 | 0.00 | 0.00 | 0.00 | 40 | 995.8 |
| 20260508042022 | 52 | 360 | 5.0 | 6.0 | 0.00 | 0.00 | 0.00 | 40 | 995.7 |
| 20260508041523 | 52 | 360 | 4.0 | 6.0 | 0.00 | 0.00 | 0.00 | 40 | 995.8 |
| 20260508041022 | 52 | 360 | 4.0 | 7.0 | 0.00 | 0.00 | 0.00 | 40 | 995.8 |
| 20260508040521 | 52 | 360 | 5.0 | 7.0 | 0.00 | 0.00 | 0.00 | 41 | 995.8 |
| 20260508040022 | 52 | 360 | 6.0 | 7.0 | 0.00 | 0.00 | 0.00 | 41 | 995.7 |
| 20260508035522 | 52 | 360 | 6.0 | 7.0 | 0.00 | 0.00 | 0.00 | 41 | 995.8 |
| 20260508035022 | 52 | 360 | 6.0 | 7.0 | 0.00 | 0.00 | 0.00 | 41 | 995.9 |
| 20260508034021 | 53 | 360 | 6.0 | 8.0 | 0.00 | 0.00 | 0.00 | 39 | 996.0 |
| 20260508033525 | 53 | 360 | 6.0 | 8.0 | 0.00 | 0.00 | 0.00 | 40 | 996.1 |
| 20260508033022 | 51 | 360 | 6.0 | 7.0 | 0.00 | 0.00 | 0.00 | 42 | 996.0 |
| 20260508032526 | 52 | 360 | 5.0 | 6.0 | 0.00 | 0.00 | 0.00 | 41 | 996.1 |
| 20260508032121 | 52 | 360 | 5.0 | 7.0 | 0.00 | 0.00 | 0.00 | 40 | 995.9 |
| 20260508031521 | 52 | 360 | 5.0 | 7.0 | 0.00 | 0.00 | 0.00 | 41 | 995.9 |
| 20260508031022 | 51 | 360 | 6.0 | 8.0 | 0.00 | 0.00 | 0.00 | 41 | 995.9 |
| 20260508030522 | 51 | 360 | 7.0 | 9.0 | 0.00 | 0.00 | 0.00 | 42 | 995.9 |
| 20260508030021 | 50 | 360 | 6.0 | 8.0 | 0.00 | 0.00 | 0.00 | 44 | 996.1 |
| 20260508025521 | 50 | 360 | 6.0 | 9.0 | 0.00 | 0.00 | 0.00 | 44 | 996.0 |
| 20260508025021 | 50 | 360 | 7.0 | 10.0 | 0.00 | 0.00 | 0.00 | 43 | 995.8 |
| 20260508024019 | 52 | 360 | 7.0 | 9.0 | 0.00 | 0.00 | 0.00 | 41 | 995.9 |
| 20260508023517 | 53 | 360 | 7.0 | 9.0 | 0.00 | 0.00 | 0.00 | 41 | 995.8 |
| 20260508023015 | 53 | 360 | 6.0 | 8.0 | 0.00 | 0.00 | 0.00 | 40 | 995.8 |
| 20260508022518 | 54 | 360 | 7.0 | 8.0 | 0.00 | 0.00 | 0.00 | 40 | 995.9 |
| 20260508022113 | 54 | 360 | 6.0 | 7.0 | 0.00 | 0.00 | 0.00 | 39 | 995.7 |
| 20260508021511 | 55 | 360 | 5.0 | 7.0 | 0.00 | 0.00 | 0.00 | 38 | 995.6 |
| 20260508021010 | 56 | 360 | 4.0 | 6.0 | 0.00 | 0.00 | 0.00 | 37 | 995.5 |
| 20260508020510 | 56 | 360 | 5.0 | 6.0 | 0.00 | 0.00 | 0.00 | 36 | 995.6 |
| 20260508020008 | 58 | 293 | 5.0 | 6.0 | 0.00 | 0.00 | 0.00 | 34 | 995.6 |
| 20260508015506 | 59 | 293 | 5.0 | 6.0 | 0.00 | 0.00 | 0.00 | 33 | 995.6 |
| 20260508015005 | 60 | 293 | 4.0 | 6.0 | 0.00 | 0.00 | 0.00 | 32 | 995.5 |
| 20260508014004 | 61 | 293 | 4.0 | 7.0 | 0.00 | 0.00 | 0.00 | 32 | 995.7 |
| 20260508013502 | 61 | 293 | 5.0 | 7.0 | 0.00 | 0.00 | 0.00 | 31 | 995.6 |
| 20260508013002 | 62 | 293 | 6.0 | 9.0 | 0.00 | 0.00 | 0.00 | 31 | 995.7 |